Skip Page Navigation
NASA JPL Caltech
NASA Logo - Jet Propulsion Laboratory + View the NASA Portal
+ Near-Earth Object (NEO) Program
Search JPL
JPL Home Earth Solar System Stars & Galaxies Technology
JPL Solar System Dynamics
BODIES ORBITS EPHEMERIDES TOOLS PHYSICAL DATA DISCOVERY FAQ SITE MAP
JPL Small-Body Database Browser
Search: [ help ]  
53910 Janfischer (2000 GF4)
Classification: Main-belt Asteroid          SPK-ID: 2053910
Ephemeris | Orbit Diagram | Orbital Elements | Physical Parameters | Discovery Circumstances ]

[ show orbit diagram ]
Orbital Elements at Epoch 2456800.5 (2014-May-23.0) TDB
Reference: JPL 11 (heliocentric ecliptic J2000)
 Element Value Uncertainty (1-sigma)   Units 
e .1221801742794437 4.6324e-08  
a 2.40565789865471 1.9493e-08 AU
q 2.111734197340358 1.1226e-07 AU
i .02248396185597844 6.1864e-06 deg
node 321.0986606902433 0.013967 deg
peri 110.2014795060944 0.013967 deg
M 39.09004753652371 3.5608e-05 deg
tp 2456652.516625573570
(2013-Dec-26.01662557)
0.00013559 JED
period 1362.853671225091
3.73
1.6564e-05
4.535e-08
d
yr
n .2641516162746879 3.2105e-09 deg/d
Q 2.699581599969063 2.1874e-08 AU
  Orbit Determination Parameters
   # obs. used (total)      654  
   data-arc span      6593 days (18.05 yr)  
   first obs. used      1996-03-11  
   last obs. used      2014-03-30  
   planetary ephem.      DE431  
   SB-pert. ephem.      SB431-BIG16  
   condition code      0  
   fit RMS      .56281  
   data source      ORB  
   producer      Otto Matic  
   solution date      2014-Jun-10 08:43:11  

Additional Information
 Earth MOID = 1.12532 AU 
 T_jup = 3.513 
[ show covariance matrix ]

Ephemeris | Orbit Diagram | Orbital Elements | Physical Parameters | Discovery Circumstances ]

Physical Parameter Table
Parameter Symbol Value Units Sigma Reference Notes
absolute magnitude H 15.5 mag n/a MPO280058  

53910 Jánfischer           Discovered 2000 Apr. 6 by L. Kornos and D. Kalmancok at the Modra Observatory of the Comenius University.
Ján Fischer (1905-1980) was a theoretical physicist and professor at Comenius University, Bratislava. He studied interaction between matter and electromagnetic radiation and significantly contributed to the quantum theory of photoelectric effect and Compton phenomenon.
NOTE: some special characters may not display properly (any characters within {} are an attempt to place the proper accent above a character)
Reference: 20060219/MPCPages.arcLast Updated: 2010-06-03

Alternate Designations
 2000 GF4 = 1998 UP44 = 1998 VE23 
Ephemeris | Orbit Diagram | Orbital Elements | Physical Parameters | Discovery Circumstances ]
ABOUT SSD CREDITS/AWARDS PRIVACY/COPYRIGHT GLOSSARY LINKS
FirstGov 2014-Jul-23 08:02 UT
(server date/time)  
NASA Home Page
Site Manager:   Donald K. Yeomans
Webmaster  Alan B. Chamberlin